User: anonymous   Login
Location: Bilsen
(53.7722°N, 9.8765°E)
Time: 16:34:18
(UTC+00:00)
Language:

USA 215 - Orbit

View from above orbital plane
View from above orbital plane
View from above satellite
View from above satellite

Ground track
Ground track

The orbit data is extracted from the following two-line orbital elements,

1 37162U 10046A   20148.95113063 0.00000000  00000-0  00000-0 0    06
2 37162 122.9949 273.8708 0007955 155.4864 204.5135 13.41421765    05
Epoch (UTC): 27 May 2020 22:49:37
Eccentricity: 0.0007955
inclination: 122.9949°
perigee height: 1098 km
apogee height: 1110 km
right ascension of ascending node: 273.8708°
argument of perigee: 155.4864°
revolutions per day: 13.41421765
mean anomaly at epoch: 204.5135°
orbit number at epoch: 0

The dashed part of the orbit path shows where the satellite is in the earth's shadow,  

DLR